Home   Weather   Görlitz   Past weeks

Flag for Germany Past Weather in Görlitz, Saxony, Germany — Yesterday and Last 2 Weeks

Now
46 °F

Partly sunny.


Feels Like: 46 °F
Forecast: 40 / 51 °F
Wind: 2 mph from Northeast

Location: Liberec

Current Time: Apr 27, 2017 at 1:26:03 pm

Latest Report: Apr 27, 2017 at 12:00 pm


Visibility: 19 mi

Pressure: 29.96 "Hg

Humidity: 39%

Dew Point: 22 °F

Location of GörlitzLocation

Past Weather in Görlitz — Graph

°F

Görlitz Temperature Yesterday

Maximum temperature yesterday: 40 °F (at 5:00 pm)
Minimum temperature yesterday: 35 °F (at 11:00 pm)
Average temperature yesterday: 38 °F

High & Low Weather Summary for the Past Weeks

 TemperatureHumidityPressure
High58 °F (Apr 25, 2:00 pm)98% (Apr 18, 4:00 am)30.53 "Hg (Apr 18, 4:00 am)
Low25 °F (Apr 21, 6:00 am)31% (Apr 20, 4:00 pm)29.65 "Hg (Apr 25, 3:00 pm)
Average41 °F69%30.05 "Hg
* Reported Apr 12 12:00 pm — Apr 27 12:00 pm, Görlitz, Weather by CustomWeather, © 2017

Note: Actual official high and low records may vary slightly from our data, if they occured in-between our weather recording intervals... More about our weather records

Advertising

Görlitz Weather History for the Previous 24 Hours

Scroll right to see more
 ConditionsComfort  
Time TempWeatherWind HumidityBarometerVisibility
12:00 pm
Thu, Apr 27
46 °FPartly sunny.2 mph39%29.96 "Hg19 mi
11:00 am44 °FOvercast.2 mph48%29.97 "Hg16 mi
10:00 am40 °FOvercast.2 mph77%29.96 "Hg9 mi
9:00 am38 °FOvercast.3 mph94%29.97 "Hg7 mi
8:00 am36 °FLow clouds.2 mph97%29.96 "Hg6 mi
7:00 am35 °FChilly.2 mph98%29.96 "Hg2 mi
6:00 am34 °FFog.1 mph98%29.93 "Hg1 mi
5:00 am34 °FFog.2 mph97%29.93 "Hg1 mi
4:00 am33 °FFog.2 mph97%29.93 "Hg1 mi
3:00 am34 °FFog.2 mph97%29.93 "Hg1 mi
2:00 am33 °FFog.1 mph97%29.96 "Hg4 mi
1:00 am33 °FChilly.No wind96%29.94 "Hg7 mi
12:00 am32 °FFog.1 mph95%29.95 "Hg6 mi
11:00 pm
Wed, Apr 26
35 °FFog.No wind95%29.95 "Hg5 mi
10:00 pm36 °FOvercast.1 mph92%29.94 "Hg11 mi
9:00 pm37 °FOvercast.2 mph90%29.93 "Hg10 mi
8:00 pm38 °FOvercast.2 mph85%29.92 "Hg9 mi
7:00 pm39 °FDrizzle. Cloudy.2 mph83%29.90 "Hg12 mi
6:00 pm39 °FRain showers. Cloudy.2 mph83%29.90 "Hg12 mi
5:00 pm40 °FOvercast.2 mph76%29.89 "Hg9 mi
4:00 pm40 °FLight rain. Overcast.2 mph79%29.89 "Hg8 mi
3:00 pm39 °FLight rain. Overcast.2 mph80%29.89 "Hg6 mi
2:00 pm39 °FLight rain. Overcast.2 mph80%29.89 "Hg6 mi
1:00 pm39 °FLight rain. Overcast.2 mph78%29.88 "Hg7 mi
Weather by CustomWeather, © 2017

See weather overviewHow to use our weather pages